[[{"header":{"parameterUnit":"m.s-1","parameterCategory":1,"la1":30.2991,"la2":30.254,"lo1":-89.0895,"lo2":-89.0444,"dy":0.0017,"dx":0.0017,"nx":28,"ny":28,"refTime":"2025-08-19T21:00:00:Z","depth":0,"parameterNumber":2,"parameterNumberName":"U-component_of_WINDS"},"data":[0,0,0,0,0,0,0,0,0,0,0,0,0,0,0,0,0,0,0,0,0,0,0,0,0,0,0,0,0,0,0,0,0,0,0,0,0,0,0,0,0,0,0,0,0,0,0,0,0,0,0,0,0,0,0,0,0,0,-0.4744,-0.4743,0,-0.4687,-0.4686,-0.4686,-0.466,-0.466,-0.466,-0.466,-0.4602,-0.46,-0.4598,0,0,0,0,0,0,0,0,0,0,0,0,0,-0.4831,-0.4829,-0.4744,-0.4743,-0.4743,-0.4687,-0.4686,-0.4686,-0.466,-0.466,-0.466,-0.466,-0.4602,-0.46,-0.4598,0,0,0,0,0,0,0,0,0,0,0,0,0,-0.4785,-0.4829,-0.4744,-0.4723,-0.472,-0.4687,-0.4686,-0.4685,-0.466,-0.466,-0.466,-0.466,-0.4603,-0.46,-0.4598,-0.4582,0,0,-0.4591,-0.459,0,0,0,0,0,0,0,0,-0.4788,-0.4782,-0.4727,-0.4724,-0.4721,-0.4681,-0.4696,-0.4651,-0.466,-0.4683,-0.466,-0.466,-0.4628,-0.4623,-0.4613,-0.4579,-0.4577,-0.4591,-0.4589,-0.4588,-0.4587,0,0,0,0,0,0,0,-0.4791,-0.4785,-0.4721,-0.4726,-0.4723,-0.4716,-0.471,-0.4687,-0.4656,-0.4681,-0.4679,-0.4672,-0.4626,-0.4615,-0.4611,-0.4576,-0.4591,-0.4588,-0.4587,-0.4586,-0.4527,-0.4527,0,0,0,0,0,0,-0.4798,-0.4787,-0.4723,-0.472,-0.4756,-0.4715,-0.4708,-0.4694,-0.4656,-0.465,-0.4672,-0.4671,-0.4619,-0.4614,-0.4609,-0.4588,-0.4588,-0.4586,-0.4584,-0.4527,-0.4527,-0.4527,0,0,0,0,0,0,-0.48,-0.4792,-0.4726,-0.4753,-0.4744,-0.4713,-0.4698,-0.4692,-0.4681,-0.4649,-0.4644,-0.4666,-0.4619,-0.4612,-0.4589,-0.4585,-0.4585,-0.4583,-0.4527,-0.4527,-0.4527,-0.4545,0,0,0,0,0,0,-0.4802,-0.4793,-0.4786,-0.4753,-0.4743,-0.4706,-0.4697,-0.4691,-0.4677,-0.4675,-0.4642,-0.4637,-0.4618,-0.4593,-0.4587,-0.4582,-0.4581,-0.4528,-0.4527,-0.4527,-0.4545,-0.4546,-0.4546,0,0,0,0,0,-0.4805,-0.4794,-0.4786,-0.4779,-0.4734,-0.4706,-0.47,-0.4679,-0.4677,-0.467,-0.465,-0.4638,-0.4587,-0.4591,-0.4583,-0.4578,-0.4528,-0.4527,-0.4527,-0.4544,-0.4546,-0.4546,0,0,0,0,0,0,-0.4827,-0.4789,-0.478,-0.4757,-0.4735,-0.4702,-0.4693,-0.4681,-0.4659,-0.4659,-0.4633,-0.4626,-0.4605,-0.4589,-0.4594,-0.4561,-0.4556,-0.4555,-0.4572,-0.4573,-0.4573,-0.4578,-0.4579,0,0,0,0,0,-0.483,-0.481,-0.4778,-0.4761,-0.475,-0.4724,-0.4711,-0.4697,-0.4673,-0.4663,-0.4641,-0.4619,-0.4598,-0.4584,-0.4563,-0.4543,-0.4535,-0.4536,-0.4536,-0.4537,-0.4536,-0.4524,-0.4524,-0.4526,-0.4526,-0.4526,0,0,-0.4834,-0.481,-0.48,-0.4765,-0.4746,-0.4727,-0.4716,-0.4696,-0.4682,-0.466,-0.4637,-0.462,-0.4594,-0.4572,-0.4561,-0.4558,-0.4534,-0.4537,-0.4538,-0.4536,-0.4524,-0.4524,-0.4524,-0.4526,-0.4526,-0.4526,0,0,-0.4832,-0.4812,-0.4796,-0.4778,-0.4749,-0.4732,-0.4728,-0.4697,-0.4685,-0.4661,-0.4645,-0.4628,-0.4592,-0.4573,-0.4559,-0.4552,-0.454,-0.4546,-0.455,-0.4539,-0.4538,-0.4538,-0.4536,-0.4535,-0.4544,-0.4544,-0.4545,0,-0.4841,-0.4811,-0.4789,-0.477,-0.4755,-0.4736,-0.4719,-0.4702,-0.4669,-0.4659,-0.4656,-0.4611,-0.4592,-0.4566,-0.4564,-0.4553,-0.4548,-0.4549,-0.454,-0.454,-0.4539,-0.4536,-0.4535,-0.4545,-0.4545,-0.4545,-0.4545,0,-0.4823,-0.4803,-0.4794,-0.4762,-0.4746,-0.4729,-0.4704,-0.4691,-0.4679,-0.4662,-0.4638,-0.4614,-0.4588,-0.4581,-0.4568,-0.4553,-0.4552,-0.4545,-0.454,-0.454,-0.4537,-0.4536,-0.4547,-0.4546,-0.4546,-0.4546,0,0,-0.4833,-0.479,-0.4786,-0.4772,-0.474,-0.4724,-0.4706,-0.4681,-0.467,-0.4648,-0.4632,-0.4603,-0.4596,-0.4581,-0.4566,-0.4556,-0.4552,-0.455,-0.455,-0.4552,-0.4534,-0.454,-0.4539,-0.4545,-0.4544,-0.4544,-0.4536,0,-0.4826,-0.4793,-0.4773,-0.4748,-0.4729,-0.471,-0.4695,-0.4674,-0.4657,-0.464,-0.4622,-0.4601,-0.4594,-0.4585,-0.4574,-0.4555,-0.4548,-0.4555,-0.453,-0.4529,-0.4537,-0.4537,-0.4542,-0.4536,-0.4535,-0.4535,-0.4535,0,-0.4814,-0.4792,-0.4765,-0.4736,-0.4727,-0.4714,-0.4689,-0.4672,-0.4648,-0.4637,-0.462,-0.4605,-0.4586,-0.4583,-0.4556,-0.4561,-0.455,-0.4539,-0.4538,-0.4535,-0.4532,-0.4533,-0.4534,-0.4533,-0.4533,-0.4533,-0.4533,0,-0.4824,-0.4788,-0.4767,-0.4755,-0.4721,-0.4711,-0.4697,-0.4673,-0.4659,-0.4638,-0.4628,-0.4605,-0.4592,-0.4575,-0.4555,-0.4554,-0.453,-0.4525,-0.452,-0.4521,-0.4516,-0.4516,-0.4514,-0.4509,-0.4509,-0.4509,-0.4509,0,-0.4818,-0.4802,-0.4771,-0.4758,-0.474,-0.4718,-0.4701,-0.4684,-0.4664,-0.4648,-0.463,-0.4616,-0.459,-0.4572,-0.4556,-0.4537,-0.4531,-0.4522,-0.4518,-0.4523,-0.4524,-0.4515,-0.4515,-0.4509,-0.4509,-0.4509,-0.4509,0,-0.4826,-0.4804,-0.478,-0.4749,-0.4741,-0.4729,-0.4703,-0.469,-0.4674,-0.4654,-0.4648,-0.4621,-0.46,-0.4578,-0.4549,-0.4538,-0.4519,-0.4514,-0.4527,-0.4525,-0.4521,-0.4522,-0.4513,-0.4511,-0.4507,-0.4508,-0.4508,0,-0.4824,-0.4811,-0.4779,-0.4767,-0.4753,-0.4734,-0.4719,-0.4697,-0.4684,-0.4656,-0.4646,-0.4624,-0.4604,-0.4571,-0.4549,-0.4527,-0.4521,-0.4519,-0.4517,-0.4523,-0.4521,-0.4521,-0.452,-0.452,-0.452,-0.452,-0.452,0,-0.4822,-0.4812,-0.4792,-0.4769,-0.4753,-0.4734,-0.4714,-0.4705,-0.4679,-0.4665,-0.4642,-0.4627,-0.4598,-0.4576,-0.4551,-0.4536,-0.4524,-0.4521,-0.4519,-0.4524,-0.4532,-0.4528,-0.4529,-0.4521,-0.4521,-0.4521,-0.4521,-0.4521,-0.4825,-0.4813,-0.4788,-0.4767,-0.475,-0.4732,-0.4719,-0.47,-0.4681,-0.4656,-0.4644,-0.4622,-0.4599,-0.4564,-0.455,-0.4532,-0.4529,-0.4526,-0.4525,-0.4524,-0.4526,-0.4536,-0.4528,-0.4528,-0.4528,-0.4528,-0.4528,0,-0.4822,-0.4806,-0.4787,-0.4759,-0.4743,-0.4733,-0.4711,-0.4698,-0.4678,-0.4658,-0.4639,-0.4614,-0.4593,-0.457,-0.4547,-0.4538,-0.4532,-0.4532,-0.4533,-0.4529,-0.453,-0.4534,-0.4538,-0.4538,-0.4538,-0.4538,-0.4538,-0.4538,-0.4819,-0.4798,-0.4786,-0.4757,-0.4741,-0.4719,-0.4707,-0.469,-0.4674,-0.4647,-0.4629,-0.4614,-0.4593,-0.4568,-0.4548,-0.4542,-0.4535,-0.4537,-0.4529,-0.453,-0.4529,-0.4529,-0.4532,-0.4536,-0.4536,-0.453,-0.453,-0.453]},{"header":{"parameterUnit":"m.s-1","parameterCategory":1,"la1":30.2991,"la2":30.254,"lo1":-89.0895,"lo2":-89.0444,"dy":0.0017,"dx":0.0017,"nx":28,"ny":28,"refTime":"2025-08-19T21:00:00:Z","depth":0,"parameterNumber":3,"parameterNumberName":"V-component_of_WINDS"},"data":[0,0,0,0,0,0,0,0,0,0,0,0,0,0,0,0,0,0,0,0,0,0,0,0,0,0,0,0,0,0,0,0,0,0,0,0,0,0,0,0,0,0,0,0,0,0,0,0,0,0,0,0,0,0,0,0,0,0,2.593,2.5929,0,2.5899,2.5899,2.5898,2.585,2.5849,2.5848,2.5847,2.5816,2.5816,2.5816,0,0,0,0,0,0,0,0,0,0,0,0,0,2.5946,2.5946,2.593,2.5929,2.5929,2.5899,2.5899,2.5898,2.585,2.5849,2.5848,2.5847,2.5816,2.5816,2.5816,0,0,0,0,0,0,0,0,0,0,0,0,0,2.5929,2.5946,2.593,2.5901,2.5898,2.5899,2.5899,2.5898,2.585,2.5849,2.5847,2.5846,2.5816,2.5816,2.5816,2.5842,0,0,2.5816,2.5816,0,0,0,0,0,0,0,0,2.593,2.5929,2.5906,2.5903,2.59,2.5877,2.5893,2.5879,2.585,2.5868,2.5847,2.5846,2.5837,2.5835,2.5833,2.5841,2.584,2.5816,2.5816,2.5816,2.5816,0,0,0,0,0,0,0,2.5932,2.593,2.5918,2.5905,2.5902,2.589,2.5886,2.589,2.5861,2.5867,2.5863,2.586,2.5835,2.5833,2.5832,2.5839,2.5816,2.5816,2.5816,2.5816,2.5866,2.5867,0,0,0,0,0,0,2.5937,2.5931,2.5918,2.5917,2.5912,2.589,2.5886,2.5886,2.586,2.5855,2.5861,2.5858,2.5833,2.5832,2.583,2.5858,2.5816,2.5816,2.5816,2.5864,2.5866,2.5867,0,0,0,0,0,0,2.5937,2.5936,2.592,2.5923,2.592,2.5892,2.5891,2.5886,2.5883,2.5856,2.5851,2.5864,2.5832,2.583,2.5839,2.5856,2.5816,2.5816,2.5863,2.5865,2.5867,2.5915,0,0,0,0,0,0,2.5938,2.5937,2.5947,2.5923,2.592,2.593,2.5892,2.5886,2.5883,2.5878,2.5857,2.5853,2.5831,2.584,2.5839,2.5855,2.5816,2.5861,2.5864,2.5866,2.5911,2.5918,2.5924,0,0,0,0,0,2.5939,2.5962,2.5947,2.5946,2.5932,2.5931,2.5929,2.5903,2.5885,2.5894,2.5877,2.5853,2.5855,2.5841,2.584,2.5857,2.586,2.5863,2.5866,2.5909,2.5917,2.5924,0,0,0,0,0,0,2.5988,2.5958,2.5942,2.5958,2.5947,2.5922,2.5934,2.5913,2.5907,2.5903,2.5872,2.5868,2.588,2.587,2.5855,2.588,2.5854,2.5857,2.5886,2.5894,2.59,2.5902,2.5816,0,0,0,0,0,2.6001,2.6003,2.5977,2.5993,2.5989,2.5962,2.5961,2.5942,2.593,2.5925,2.5908,2.5897,2.5895,2.5894,2.589,2.591,2.5904,2.5921,2.5927,2.5932,2.5935,2.5942,2.5949,2.5877,2.5877,2.5877,0,0,2.6027,2.6011,2.6014,2.6003,2.5992,2.5994,2.5959,2.5963,2.5964,2.5926,2.5932,2.592,2.5905,2.5919,2.5925,2.5911,2.5953,2.5936,2.594,2.594,2.5946,2.5953,2.5959,2.5879,2.5879,2.5878,0,0,2.6076,2.6065,2.6077,2.6066,2.6051,2.6033,2.6036,2.6014,2.6004,2.601,2.5981,2.5982,2.5979,2.5969,2.5964,2.6008,2.5986,2.6008,2.604,2.6047,2.6053,2.6058,2.6072,2.6078,2.6011,2.6011,2.6011,0,2.6111,2.6113,2.6085,2.6091,2.6086,2.6051,2.6063,2.6054,2.6038,2.6036,2.602,2.6015,2.6003,2.6013,2.6023,2.6021,2.6022,2.601,2.6055,2.6059,2.6063,2.6076,2.6082,2.6014,2.6013,2.6013,2.6013,0,2.6155,2.6157,2.6169,2.6153,2.615,2.6159,2.6132,2.6132,2.6114,2.6097,2.6104,2.6088,2.608,2.6081,2.6064,2.6088,2.608,2.606,2.6033,2.6073,2.6085,2.609,2.6017,2.6016,2.6016,2.6015,0,0,2.6234,2.6203,2.6208,2.6199,2.6179,2.618,2.6186,2.6178,2.6178,2.6168,2.6172,2.617,2.6151,2.6145,2.6126,2.6133,2.6167,2.6112,2.6111,2.6121,2.6191,2.6205,2.6212,2.6152,2.6153,2.6154,2.6192,0,2.6277,2.6287,2.6262,2.6277,2.6277,2.6244,2.625,2.6238,2.6222,2.622,2.6204,2.6202,2.6178,2.6174,2.6179,2.6162,2.618,2.6159,2.6155,2.6155,2.6158,2.6218,2.6233,2.627,2.6197,2.6197,2.6198,0,2.6329,2.6321,2.6336,2.6314,2.6313,2.6318,2.6308,2.6307,2.6292,2.628,2.6273,2.6251,2.6255,2.623,2.6234,2.622,2.6217,2.6208,2.6208,2.6206,2.6178,2.6216,2.6281,2.6286,2.6205,2.6205,2.6204,0,2.6383,2.6376,2.6384,2.6378,2.6353,2.6357,2.6347,2.633,2.6327,2.6318,2.6315,2.6307,2.6302,2.6296,2.6272,2.6256,2.6278,2.6251,2.6268,2.6268,2.6273,2.6273,2.6337,2.6274,2.6274,2.6274,2.6274,0,2.6433,2.6443,2.6407,2.6412,2.6422,2.6394,2.6404,2.639,2.6376,2.6377,2.6348,2.635,2.6318,2.6316,2.6297,2.6302,2.6301,2.6291,2.6285,2.6293,2.6294,2.6289,2.6285,2.6275,2.6275,2.6274,2.6274,0,2.6495,2.6471,2.6477,2.6452,2.6446,2.6454,2.6433,2.6436,2.6418,2.642,2.6418,2.6392,2.6387,2.6362,2.6353,2.634,2.6351,2.6342,2.6356,2.6353,2.637,2.6368,2.6433,2.6439,2.6373,2.6374,2.6374,0,2.6528,2.6534,2.651,2.6508,2.6499,2.6497,2.6493,2.6465,2.6462,2.6444,2.6449,2.6442,2.6435,2.643,2.6409,2.6401,2.639,2.6413,2.6388,2.6395,2.6388,2.6387,2.6387,2.6418,2.6419,2.6419,2.642,0,2.6588,2.6576,2.6571,2.6561,2.6557,2.6548,2.6538,2.6538,2.6507,2.6505,2.65,2.6494,2.6484,2.6477,2.6465,2.6453,2.6431,2.6428,2.6431,2.6438,2.6445,2.644,2.6369,2.6426,2.6426,2.6425,2.6425,2.6425,2.6635,2.6639,2.6622,2.6617,2.6606,2.6597,2.6598,2.658,2.6576,2.6565,2.6549,2.6545,2.6529,2.6511,2.6501,2.6498,2.6485,2.649,2.6491,2.6492,2.6495,2.6447,2.6496,2.6495,2.6495,2.6495,2.6495,0,2.6692,2.668,2.6675,2.6661,2.6657,2.6637,2.6624,2.6622,2.6619,2.6606,2.6599,2.6593,2.6586,2.6564,2.6555,2.6556,2.6546,2.6554,2.6553,2.6551,2.6508,2.6505,2.6563,2.6563,2.6563,2.6563,2.6563,2.6563,2.6722,2.6727,2.6712,2.6711,2.6699,2.6695,2.6689,2.668,2.6669,2.6663,2.6657,2.6643,2.6626,2.6615,2.6607,2.6601,2.6598,2.661,2.66,2.6561,2.6554,2.6548,2.6545,2.661,2.661,2.6643,2.6644,2.6644]}]]